• In Portugal
  • List of Countries
  • For 7 days
  • Water Temperature
  • Satellite Maps
  • Weather Map
  • Weather Widgets
  • user-avatar
    Login

    Hourly Weather Tibissa

    Today, 23 May, Wednesday

    Time Temperature Precipitation Wind Pressure Humidity
    00:00 +17°C° 0 mm 2 mps 686 mmHg 72%
    01:00 +16°C° 0 mm 1 mps 686 mmHg 77%
    02:00 +16°C° 0 mm 1 mps 686 mmHg 79%
    03:00 +16°C° 0 mm 1 mps 686 mmHg 81%
    04:00 +15°C° 0 mm 1 mps 686 mmHg 83%
    05:00 +16°C° 0 mm 1 mps 686 mmHg 81%
    06:00 +16°C° 0 mm 1 mps 687 mmHg 78%
    07:00 +16°C° 0 mm 1 mps 687 mmHg 76%
    08:00 +19°C° 0 mm 1 mps 687 mmHg 66%
    09:00 +20°C° 0 mm 1 mps 688 mmHg 56%
    10:00 +21°C° 0 mm 2 mps 688 mmHg 46%
    11:00 +23°C° 0 mm 2 mps 688 mmHg 41%
    12:00 +24°C° 0 mm 2 mps 689 mmHg 35%
    13:00 +26°C° 0 mm 2 mps 689 mmHg 29%
    14:00 +26°C° 0 mm 3 mps 689 mmHg 28%
    15:00 +27°C° 0 mm 3 mps 688 mmHg 26%
    16:00 +27°C° 0 mm 3 mps 688 mmHg 25%
    17:00 +27°C° 0 mm 3 mps 688 mmHg 27%
    18:00 +26°C° 0 mm 3 mps 688 mmHg 29%
    19:00 +26°C° 0 mm 4 mps 688 mmHg 32%
    20:00 +25°C° 0 mm 3 mps 688 mmHg 37%
    21:00 +22°C° 0 mm 3 mps 688 mmHg 42%
    22:00 +21°C° 0 mm 3 mps 689 mmHg 47%
    23:00 +21°C° 0 mm 2 mps 688 mmHg 49%

    Tomorrow, 24 May, Thursday

    Time Temperature Precipitation Wind Pressure Humidity
    00:00 +20°C° 0 mm 2 mps 688 mmHg 52%
    01:00 +20°C° 0 mm 1 mps 688 mmHg 54%
    02:00 +20°C° 0 mm 1 mps 688 mmHg 56%
    03:00 +20°C° 0 mm 1 mps 687 mmHg 57%
    04:00 +19°C° 0 mm 1 mps 687 mmHg 58%
    05:00 +20°C° 0 mm 1 mps 687 mmHg 54%
    06:00 +21°C° 0 mm 1 mps 687 mmHg 50%
    07:00 +22°C° 0 mm 1 mps 688 mmHg 46%
    08:00 +23°C° 0 mm 1 mps 688 mmHg 40%
    09:00 +25°C° 0 mm 1 mps 688 mmHg 33%
    10:00 +27°C° 0 mm 2 mps 689 mmHg 26%
    11:00 +28°C° 0 mm 2 mps 688 mmHg 24%
    12:00 +29°C° 0 mm 2 mps 688 mmHg 22%
    13:00 +30°C° 0 mm 2 mps 688 mmHg 19%
    14:00 +31°C° 0 mm 3 mps 688 mmHg 19%
    15:00 +31°C° 0 mm 3 mps 688 mmHg 19%
    16:00 +31°C° 0 mm 3 mps 687 mmHg 18%
    17:00 +30°C° 0 mm 3 mps 687 mmHg 21%
    18:00 +30°C° 0 mm 4 mps 687 mmHg 24%
    19:00 +29°C° 0 mm 4 mps 687 mmHg 27%
    20:00 +28°C° 0 mm 3 mps 687 mmHg 31%
    21:00 +26°C° 0 mm 3 mps 687 mmHg 35%
    22:00 +25°C° 0 mm 2 mps 687 mmHg 39%
    23:00 +24°C° 0 mm 2 mps 687 mmHg 42%

    Day after tomorrow, 25 May, Friday

    Time Temperature Precipitation Wind Pressure Humidity
    00:00 +24°C° 0 mm 1 mps 687 mmHg 45%
    01:00 +23°C° 0 mm 1 mps 686 mmHg 47%
    02:00 +23°C° 0 mm 1 mps 686 mmHg 48%
    03:00 +22°C° 0 mm 1 mps 686 mmHg 48%
    04:00 +22°C° 0 mm 1 mps 686 mmHg 49%
    05:00 +23°C° 0 mm 1 mps 686 mmHg 45%
    06:00 +24°C° 0 mm 1 mps 686 mmHg 41%
    07:00 +25°C° 0 mm 1 mps 687 mmHg 37%
    08:00 +26°C° 0 mm 1 mps 687 mmHg 32%
    09:00 +28°C° 0 mm 1 mps 687 mmHg 27%
    10:00 +29°C° 0 mm 1 mps 688 mmHg 22%
    11:00 +30°C° 0 mm 2 mps 688 mmHg 20%
    12:00 +31°C° 0 mm 2 mps 688 mmHg 19%
    13:00 +32°C° 0 mm 2 mps 688 mmHg 17%
    14:00 +32°C° 0 mm 2 mps 687 mmHg 16%
    15:00 +34°C° 0 mm 2 mps 687 mmHg 16%
    16:00 +34°C° 0 mm 3 mps 687 mmHg 16%
    17:00 +33°C° 0 mm 3 mps 687 mmHg 17%
    18:00 +33°C° 0 mm 4 mps 686 mmHg 19%
    19:00 +32°C° 0 mm 4 mps 686 mmHg 21%
    20:00 +30°C° 0 mm 4 mps 687 mmHg 25%
    21:00 +28°C° 0 mm 3 mps 687 mmHg 29%
    22:00 +27°C° 0 mm 3 mps 687 mmHg 34%
    23:00 +26°C° 0 mm 3 mps 687 mmHg 36%

    26 May, Saturday

    Time Temperature Precipitation Wind Pressure Humidity
    00:00 +25°C° 0 mm 3 mps 686 mmHg 39%
    01:00 +24°C° 0 mm 2 mps 686 mmHg 41%
    02:00 +24°C° 0 mm 2 mps 686 mmHg 43%
    03:00 +23°C° 0 mm 2 mps 685 mmHg 45%
    04:00 +23°C° 0 mm 2 mps 685 mmHg 47%
    05:00 +23°C° 0 mm 2 mps 685 mmHg 45%
    06:00 +24°C° 0 mm 2 mps 686 mmHg 43%
    07:00 +24°C° 0 mm 2 mps 686 mmHg 41%
    08:00 +26°C° 0 mm 2 mps 687 mmHg 35%
    09:00 +28°C° 0 mm 3 mps 687 mmHg 29%
    10:00 +30°C° 0 mm 3 mps 688 mmHg 23%
    11:00 +32°C° 0 mm 4 mps 688 mmHg 21%
    12:00 +33°C° 0 mm 4 mps 688 mmHg 19%
    13:00 +34°C° 0 mm 5 mps 688 mmHg 17%
    14:00 +34°C° 0 mm 5 mps 688 mmHg 17%
    15:00 +34°C° 0 mm 6 mps 687 mmHg 18%
    16:00 +34°C° 0 mm 6 mps 687 mmHg 18%
    17:00 +33°C° 0 mm 6 mps 687 mmHg 20%
    18:00 +32°C° 0 mm 5 mps 687 mmHg 23%
    19:00 +30°C° 0 mm 5 mps 686 mmHg 25%
    20:00 +29°C° 0 mm 4 mps 687 mmHg 28%
    21:00 +28°C° 0 mm 4 mps 687 mmHg 30%
    22:00 +27°C° 0 mm 3 mps 688 mmHg 33%
    23:00 +26°C° 0 mm 2 mps 687 mmHg 34%

    27 May, Sunday

    Time Temperature Precipitation Wind Pressure Humidity
    00:00 +26°C° 0 mm 2 mps 687 mmHg 35%
    01:00 +25°C° 0 mm 2 mps 687 mmHg 36%
    02:00 +25°C° 0 mm 1 mps 687 mmHg 38%
    03:00 +24°C° 0 mm 1 mps 686 mmHg 39%
    04:00 +24°C° 0 mm 1 mps 686 mmHg 41%
    05:00 +25°C° 0 mm 1 mps 686 mmHg 39%
    06:00 +25°C° 0 mm 1 mps 687 mmHg 37%
    07:00 +26°C° 0 mm 1 mps 687 mmHg 36%
    08:00 +27°C° 0 mm 1 mps 688 mmHg 33%
    09:00 +28°C° 0 mm 1 mps 688 mmHg 30%
    10:00 +29°C° 0 mm 1 mps 688 mmHg 27%
    11:00 +30°C° 0 mm 2 mps 688 mmHg 25%
    12:00 +31°C° 0 mm 2 mps 688 mmHg 23%
    13:00 +32°C° 0 mm 2 mps 688 mmHg 21%
    14:00 +34°C° 0 mm 3 mps 687 mmHg 21%
    15:00 +34°C° 0 mm 3 mps 687 mmHg 20%
    16:00 +35°C° 0 mm 4 mps 687 mmHg 19%
    17:00 +34°C° 0 mm 4 mps 686 mmHg 20%
    18:00 +33°C° 0 mm 5 mps 686 mmHg 21%
    19:00 +32°C° 0 mm 6 mps 685 mmHg 22%
    20:00 +30°C° 0 mm 6 mps 685 mmHg 25%
    21:00 +28°C° 0 mm 5 mps 685 mmHg 27%
    22:00 +27°C° 0 mm 5 mps 686 mmHg 30%
    23:00 +26°C° 0 mm 4 mps 685 mmHg 32%

    28 May, Monday

    Time Temperature Precipitation Wind Pressure Humidity
    00:00 +25°C° 0 mm 4 mps 685 mmHg 34%
    01:00 +24°C° 0 mm 3 mps 685 mmHg 37%
    02:00 +24°C° 0 mm 3 mps 685 mmHg 38%
    03:00 +22°C° 0 mm 3 mps 685 mmHg 39%
    04:00 +22°C° 0 mm 3 mps 684 mmHg 40%
    05:00 +22°C° 0 mm 3 mps 685 mmHg 38%
    06:00 +22°C° 0 mm 3 mps 685 mmHg 37%
    07:00 +23°C° 0 mm 4 mps 685 mmHg 36%
    08:00 +25°C° 0 mm 4 mps 685 mmHg 32%
    09:00 +26°C° 0 mm 5 mps 685 mmHg 29%
    10:00 +28°C° 0 mm 5 mps 685 mmHg 25%
    11:00 +29°C° 0 mm 6 mps 685 mmHg 23%
    12:00 +30°C° 0 mm 7 mps 685 mmHg 22%
    13:00 +32°C° 0 mm 8 mps 685 mmHg 21%
    14:00 +32°C° 0 mm 8 mps 685 mmHg 21%
    15:00 +32°C° 0 mm 8 mps 684 mmHg 22%
    16:00 +32°C° 0 mm 9 mps 684 mmHg 22%
    17:00 +31°C° 0 mm 9 mps 684 mmHg 25%
    18:00 +28°C° 0 mm 9 mps 683 mmHg 27%
    19:00 +27°C° 0 mm 9 mps 683 mmHg 30%
    20:00 +26°C° 0 mm 8 mps 683 mmHg 32%
    21:00 +24°C° 0 mm 7 mps 683 mmHg 35%
    22:00 +22°C° 0 mm 6 mps 683 mmHg 37%
    23:00 +22°C° 0 mm 6 mps 683 mmHg 39%
    Show more